This is the latest recevied weather packets stored in our database for station/object LW9ERO-3. If no packets are shown the sender has not sent any weather packets the latest 10 day(s).
| Time | Temp. | Humidity | Pressure | Rain* | Wind** | Luminosity | Snow |
|---|---|---|---|---|---|---|---|
| 1787758563 | 16.67° C | 54% | 1008 hPa | 0 mm | - | - | - |
| 1787758023 | 16.11° C | 55% | 1008.4 hPa | 0 mm | - | - | - |
| 1787757483 | 15.56° C | 56% | 1008.7 hPa | 0 mm | - | - | - |
| 1787756944 | 15.56° C | 56% | 1008.9 hPa | 0 mm | - | - | - |
| 1787756404 | 15.56° C | 56% | 1008.9 hPa | 0 mm | - | - | - |
| 1787756044 | 15.56° C | 56% | 1009.1 hPa | 0 mm | - | - | - |
| 1787755503 | 15° C | 58% | 1009.5 hPa | 0 mm | - | - | - |
| 1787754964 | 14.44° C | 61% | 1008.7 hPa | 0 mm | - | - | - |
| 1787754424 | 14.44° C | 62% | 1009.1 hPa | 0 mm | - | - | - |
| 1787753884 | 13.89° C | 63% | 1009 hPa | 0 mm | - | - | - |
| 1787753344 | 13.33° C | 65% | 1009 hPa | 0 mm | - | - | - |
| 1787752804 | 13.33° C | 65% | 1008.8 hPa | 0 mm | - | - | - |
| 1787752444 | 13.33° C | 66% | 1009 hPa | 0 mm | - | - | - |
| 1787751903 | 12.78° C | 68% | 1009.4 hPa | 0 mm | - | - | - |
| 1787751363 | 12.22° C | 69% | 1009.3 hPa | 0 mm | - | - | - |
| 1787750824 | 12.22° C | 69% | 1009.6 hPa | 0 mm | - | - | - |
| 1787750283 | 12.22° C | 69% | 1009.6 hPa | 0 mm | - | - | - |
| 1787749744 | 11.67° C | 71% | 1009.4 hPa | 0 mm | - | - | - |
| 1787749204 | 11.67° C | 72% | 1009.4 hPa | 0 mm | - | - | - |
| 1787748844 | 11.11° C | 72% | 1009.4 hPa | 0 mm | - | - | - |
| 1787748304 | 11.11° C | 73% | 1009.8 hPa | 0 mm | - | - | - |
| 1787747764 | 11.11° C | 73% | 1010.4 hPa | 0 mm | - | - | - |
| 1787747223 | 10.56° C | 76% | 1010 hPa | 0 mm | - | - | - |
| 1787746683 | 10° C | 76% | 1009.7 hPa | 0 mm | - | - | - |
| 1787746144 | 10° C | 78% | 1009.7 hPa | 0 mm | - | - | - |
* Rain latest hour (hover to see other rain measurements)
** Current wind speed in m/s (hover to see current wind gust speed)